Вернуться в каталог

STARLINK-32243

АктивенСвязьVLEO
NORAD 60367·PAYLOAD·🇺🇸 United States

Запущен Aug 4, 2024 с Vandenberg Space Force Base

Loading…

Ближайшие Пролёты (ближайшие 24 часа)

TLE

СвежийSource: CelesTrak SupGP

Эпоха: Sep 14, 2026, 14:45 UTC

1 60367C 24138N   26257.61506944  .00055283  00000+0  17791-2 0  2573
2 60367  53.1567 150.9851 0001003  94.6149  66.5663 15.31649680    13

Отслеживайте STARLINK-32243 в реальном времени с AllMySat

Download on the App Store